Location: Grand Moustoir
(47.8355°N, 3.3120°W)
Time: 06:27:13
(UTC+00:00)

NOAA 12 - Pass Details

Date: 20 January 2020
Orbit: 796 x 814 km, 98.5° (Epoch: 23 February)

Event Time Altitude Azimuth Distance (km) Brightness Sun altitude
Rises 07:01:26 0° 14° (NNE) 3,326 7.2 -8.9°
Reaches altitude 10° 07:03:47 10° 15° (NNE) 2,394 6.5 -8.5°
Maximum altitude 07:09:05 85° 104° (ESE) 817 4.2 -7.7°
Drops below altitude 10° 07:14:23 10° 194° (SSW) 2,389 6.7 -6.8°
Sets 07:16:43 0° 195° (SSW) 3,318 7.4 -6.5°
